Location: Unspecified
(38.0451°N, 0.0000°E)
Time: 10:17:38
(UTC+00:00)

Vanguard 1 Rocket - All Passes

Search period start: 04 April 2026 00:00
Search period end: 14 April 2026 00:00
Orbit: 654 x 4213 km, 34.3° (Epoch: 28 March)

Date Brightness Start Highest point End Pass type
(mag) Time Alt. Az. Time Alt. Az. Time Alt. Az.
4 Apr - 00:56:36 10° SW 01:17:35 61° SSE 01:28:39 10° E visible
4 Apr - 03:29:47 10° W 03:45:18 73° S 03:52:58 10° E visible
4 Apr - 06:01:45 10° W 06:10:44 42° SSW 06:16:01 10° SE daylight
4 Apr - 21:15:19 10° S 21:33:10 25° SE 21:47:07 10° E visible
4 Apr - 23:40:36 10° SW 00:03:02 51° SSE 00:16:11 10° E visible
5 Apr - 02:12:52 10° WSW 02:31:51 73° S 02:41:15 10° E visible
5 Apr - 04:46:07 10° W 04:58:32 61° SSW 05:04:58 10° ESE visible
5 Apr - 07:17:42 10° W 07:22:29 18° SW 07:26:07 10° S daylight
5 Apr - 20:06:30 10° SSE 20:18:11 15° SE 20:28:41 10° ESE visible
5 Apr - 22:25:46 10° SSW 22:48:04 41° SSE 23:03:01 10° E visible
6 Apr - 00:55:52 10° WSW 01:17:45 67° SSE 01:29:15 10° E visible
6 Apr - 03:29:40 10° W 03:45:42 73° S 03:53:35 10° ESE visible
6 Apr - 06:02:01 10° W 06:10:56 36° SSW 06:16:17 10° SSE daylight
6 Apr - 21:12:33 10° SSW 21:32:54 31° SE 21:48:38 10° E visible
6 Apr - 23:39:29 10° SW 00:03:04 58° SSE 00:16:49 10° E visible
7 Apr - 02:12:33 10° WSW 02:32:09 75° S 02:41:52 10° E visible
7 Apr - 04:46:08 10° W 04:58:50 56° SSW 05:05:28 10° SE visible
7 Apr - 07:19:00 10° WSW 07:22:27 13° SW 07:25:16 10° SSW daylight
7 Apr - 20:01:48 10° S 20:17:50 21° SE 20:32:00 10° E visible
7 Apr - 22:24:12 10° SW 22:47:54 48° SSE 23:03:45 10° E visible
8 Apr - 00:55:18 10° WSW 01:17:56 72° S 01:29:50 10° E visible
8 Apr - 03:29:33 10° W 03:46:02 70° SSW 03:54:10 10° ESE visible
8 Apr - 06:02:21 10° W 06:11:00 30° SW 06:16:21 10° SSE daylight
8 Apr - 18:58:42 10° SE 19:03:03 11° SE 19:07:21 10° ESE visible
8 Apr - 21:10:25 10° SSW 21:32:33 37° SE 21:49:43 10° E visible
8 Apr - 23:38:36 10° SW 00:03:03 65° SSE 00:17:23 10° E visible
9 Apr - 02:12:18 10° W 02:32:27 76° S 02:42:28 10° E visible
9 Apr - 04:46:09 10° W 04:59:02 49° SSW 05:05:52 10° SE visible
9 Apr - 19:58:36 10° S 20:17:21 26° SE 20:33:59 10° E visible
9 Apr - 22:22:58 10° SW 22:47:41 55° SSE 23:04:21 10° E visible
10 Apr - 00:54:52 10° WSW 01:18:06 76° S 01:30:24 10° E visible
10 Apr - 03:29:24 10° W 03:46:18 66° SSW 03:54:41 10° ESE visible
10 Apr - 06:02:51 10° W 06:10:57 24° SW 06:16:13 10° S daylight
10 Apr - 18:50:19 10° SSE 19:02:33 16° SE 19:14:30 10° E visible
10 Apr - 21:08:44 10° SSW 21:32:07 44° SE 21:50:29 10° E visible
10 Apr - 23:37:55 10° WSW 00:03:02 70° SSE 00:17:54 10° E visible
11 Apr - 02:12:04 10° W 02:32:43 76° S 02:43:02 10° ESE visible
11 Apr - 04:46:12 10° W 04:59:07 43° SW 05:06:07 10° SE visible
11 Apr - 19:56:15 10° SSW 20:16:45 33° SE 20:35:16 10° E visible
11 Apr - 22:22:00 10° SW 22:47:26 61° SSE 23:04:52 10° E visible
12 Apr - 00:54:32 10° WSW 01:18:16 78° S 01:30:57 10° E visible
12 Apr - 03:29:17 10° W 03:46:29 61° SSW 03:55:08 10° SE visible
12 Apr - 06:03:35 10° W 06:10:45 19° SW 06:15:44 10° S daylight
12 Apr - 18:46:11 10° S 19:01:52 21° SE 19:17:31 10° E visible
12 Apr - 21:07:27 10° SW 21:31:39 51° SSE 21:51:03 10° E visible
12 Apr - 23:37:25 10° WSW 00:03:01 75° SSE 00:18:24 10° E visible
13 Apr - 02:11:51 10° W 02:32:55 74° SSW 02:43:34 10° ESE visible
13 Apr - 04:46:18 10° W 04:59:03 37° SW 05:06:13 10° SSE visible
13 Apr - 17:45:40 10° SE 17:47:34 10° SE 17:49:29 10° ESE daylight
13 Apr - 19:54:26 10° SSW 20:16:05 39° SE 20:36:07 10° E visible
13 Apr - 22:21:17 10° SW 22:47:12 67° SSE 23:05:18 10° E visible
